{"data":{"norad_id":45590,"epoch":"2026-05-25T04:59:25.634976Z","epoch_age_seconds":50356,"freshness":"FRESH","line1":"1 45590U 20025BM  26145.20793559  .00080396  00000+0  11067-2 0  9992","line2":"2 45590  53.0462  85.6718 0004928  46.8127 313.3295 15.56569839337164","mean_motion":15.56569839,"eccentricity":0.0004928,"inclination_deg":53.0462,"raan_deg":85.6718,"arg_perigee_deg":46.8127,"mean_anomaly_deg":313.3295,"bstar":0.0011067,"rev_number":33716,"period_min":92.511107688243,"perigee_km":394.25405695143,"apogee_km":400.93221657422,"semimajor_km":6775.7301367628,"source":"CELESTRAK","updated_at":"2026-05-25T13:38:16.426067Z"}}